Consulta los datos en tiempo real de la estación municipal de Les Masies de Roda
| Hora UTC | 02:35 |
|---|---|
| Temperatura | 8.7 ºC |
| Suelo 15 cm | 6.9 ºC |
| Humedad | 98.6 % |
| Presión | 1011.8 hPa |
| Pluja | 0.0 mm |
| Velocidad viento | 0.2 km/h |
| Dirección viento | N |
| Radiación solar | 0.1 W/m² |
| Temperatura (ºC) | Humedad (%) | Presión (hPa) | Velocidad viento (km/h) | Precipitación (mm) | Radiación solar (W/m²) | ||||||||||||||
|---|---|---|---|---|---|---|---|---|---|---|---|---|---|---|---|---|---|---|---|
| Hora UTC | Aire | Suelo 15 cm | Humedad | Presión | Vel. | Dir. | Vel. Max | Dir. | Intent. máx 5 min. | Rad. Sol. | |||||||||
| 00:05 | 11.8 | 11.1 | 98.4 | 1012.5 | 3.4 | SW | 3.4 | SSW | 0.0 | 0.1 | |||||||||
| 00:10 | 11.7 | 11.0 | 98.3 | 1012.2 | 0.8 | WSW | 3.9 | WSW | 0.0 | 0.1 | |||||||||
| 00:15 | 11.6 | 10.6 | 98.3 | 1012.3 | 2.8 | SSW | 5.0 | SSW | 0.0 | 0.1 | |||||||||
| 00:20 | 11.5 | 10.2 | 98.3 | 1012.0 | 3.1 | SSW | 5.0 | SSW | 0.0 | 0.1 | |||||||||
| 00:25 | 11.4 | 10.0 | 98.3 | 1012.1 | 2.1 | SSW | 3.9 | SSW | 0.0 | 0.1 | |||||||||
| 00:30 | 11.3 | 9.9 | 98.3 | 1012.0 | 2.5 | W | 3.2 | W | 0.0 | 0.1 | |||||||||
| 00:35 | 11.2 | 10.0 | 98.4 | 1011.9 | 2.5 | WNW | 4.2 | WNW | 0.0 | 0.1 | |||||||||
| 00:40 | 11.2 | 9.7 | 98.4 | 1011.7 | 2.1 | W | 3.2 | W | 0.0 | 0.1 | |||||||||
| 00:45 | 11.0 | 9.2 | 98.3 | 1011.7 | 1.9 | W | 2.8 | W | 0.0 | 0.1 | |||||||||
| 00:50 | 10.7 | 8.9 | 98.2 | 1011.7 | 3.2 | WNW | 4.6 | WNW | 0.0 | 0.1 | |||||||||
| 00:55 | 10.6 | 8.5 | 98.4 | 1011.7 | 1.1 | WSW | 3.2 | WSW | 0.0 | 0.1 | |||||||||
| 01:00 | 10.6 | 8.2 | 98.4 | 1011.7 | 3.0 | SW | 4.6 | WSW | 0.0 | 0.1 | |||||||||
| 01:05 | 10.5 | 8.0 | 98.4 | 1011.8 | 0.8 | SW | 2.5 | WSW | 0.0 | 0.1 | |||||||||
| 01:10 | 10.3 | 8.0 | 98.3 | 1011.8 | 0.9 | WNW | 2.1 | WNW | 0.0 | 0.1 | |||||||||
| 01:15 | 10.2 | 7.9 | 98.5 | 1011.8 | 1.5 | NNW | 2.5 | NNW | 0.0 | 0.1 | |||||||||
| 01:20 | 10.0 | 7.7 | 98.4 | 1011.7 | 1.9 | NNE | 2.8 | NNE | 0.0 | 0.1 | |||||||||
| 01:25 | 9.9 | 7.5 | 98.5 | 1011.7 | 0.3 | NNE | 2.5 | NNE | 0.0 | 0.1 | |||||||||
| 01:30 | 9.2 | 7.3 | 98.1 | 1011.6 | 0.0 | NNE | 0.0 | NNE | 0.0 | 0.1 | |||||||||
| 01:35 | 8.9 | 7.2 | 98.2 | 1011.5 | 0.0 | NNE | 0.0 | NNE | 0.0 | 0.1 | |||||||||
| 01:40 | 8.9 | 7.1 | 98.5 | 1011.6 | 2.0 | SE | 3.5 | SE | 0.0 | 0.1 | |||||||||
| 01:45 | 9.1 | 7.0 | 98.6 | 1011.7 | 0.0 | NNE | 0.0 | SE | 0.0 | 0.1 | |||||||||
| 01:50 | 9.1 | 6.9 | 98.6 | 1011.7 | 0.0 | NNE | 0.0 | SW | 0.0 | 0.1 | |||||||||
| 01:55 | 9.0 | 6.9 | 98.6 | 1011.6 | 0.9 | SSW | 2.8 | SSW | 0.0 | 0.1 | |||||||||
| 02:00 | 8.9 | 6.9 | 98.6 | 1011.6 | 0.0 | NNE | 0.0 | SSW | 0.0 | 0.1 | |||||||||
| 02:05 | 8.9 | 7.0 | 98.7 | 1011.7 | 0.0 | NNE | 0.0 | SW | 0.0 | 0.1 | |||||||||
| 02:10 | 9.1 | 7.0 | 98.8 | 1011.6 | 0.0 | NNE | 0.0 | W | 0.0 | 0.1 | |||||||||
| 02:15 | 9.3 | 7.0 | 98.9 | 1011.6 | 0.0 | NNE | 0.0 | W | 0.0 | 0.1 | |||||||||
| 02:20 | 9.2 | 6.9 | 98.8 | 1011.6 | 0.0 | NNE | 0.0 | W | 0.0 | 0.1 | |||||||||
| 02:25 | 9.1 | 6.9 | 98.8 | 1011.8 | 0.0 | NNE | 0.0 | NE | 0.0 | 0.1 | |||||||||
| 02:30 | 9.1 | 7.0 | 98.8 | 1011.7 | 2.5 | NNE | 4.2 | NNE | 0.0 | 0.1 | |||||||||
| 02:35 | 8.7 | 6.9 | 98.6 | 1011.8 | 0.2 | N | 1.8 | N | 0.0 | 0.1 | |||||||||
| Máxima | 11.8 | 11.1 | 98.9 | 1012.5 | 3.4 | SW | 5.0 | SSW | 0.0 | 0.1 | |||||||||
| Mínima | 8.7 | 6.9 | 98.1 | 1011.5 | |||||||||||||||
| Total | 0.0 | ||||||||||||||||||